Regional Weather Roundup
Issued by NWS Upton, NY

Current Version | Previous Version | Text Only | Print | Product List | Glossary On
Versions: 1 2 3 4 5 6 7 8 9 10 11 12 13 14 15 16 17 18 19 20 21 22 23 24 25 26 27 28 29 30 31 32 33 34 35 36 37 38 39 40 41 42 43 44 45 46 47 48 49
000
ASUS41 KOKX 241405
RWROKX

REGIONAL WEATHER ROUNDUP
NATIONAL WEATHER SERVICE NEW YORK NY
1000 AM EDT THU JUL 24 2014

NOTE: "FAIR" INDICATES FEW OR NO CLOUDS BELOW 12,000 FEET WITH NO
SIGNIFICANT WEATHER AND/OR OBSTRUCTIONS TO VISIBILITY.

NYZ071-072-176-178-NJZ106-104-241500-
NEW YORK CITY METRO AREA


CITY           SKY/WX    TMP DP  RH WIND       PRES   REMARKS
CENTRAL PARK   CLOUDY    74  63  68 NE6       29.89R
LAGUARDIA APRT CLOUDY    74  62  66 N10       29.85S
KENNEDY INTL   PTSUNNY   78  63  59 N13       29.86S
NEWARK/LIBERTY PTSUNNY   76  63  64 N14       29.86S
BRNX BOT. GARD   N/A    N/A N/A N/A E12       29.87S
TETERBORO      CLOUDY    76  63  64 N6        29.85S
$$

NYZ177-179-078>081-241500-
LONG ISLAND NEW YORK

CITY           SKY/WX    TMP DP  RH WIND       PRES   REMARKS
FARMINGDALE    PTSUNNY   74  64  71 N13       29.85S
ISLIP          PTSUNNY   77  63  61 NW13      29.83R
SHIRLEY        PTSUNNY   76  64  66 N13       29.84R
WESTHAMPTON    PTSUNNY   75  64  68 N10       29.85R
MONTAUK POINT    N/A     75  66  73 NW6       29.83R
$$

NYZ052-065-067-241500-
HUDSON VALLEY

CITY           SKY/WX    TMP DP  RH WIND       PRES   REMARKS
WHITE PLAINS   PTSUNNY   72  61  68 N13G21    29.86S
NEWBURGH       PTSUNNY   72  64  78 NE12      29.90R
MONTGOMERY     CLOUDY    73  60  63 NE13      29.88S
POUGHKEEPSIE   MOSUNNY   71  60  68 N12       29.88R
ALBANY         PTSUNNY   69  57  65 NE12      29.92S
$$

NJZ001-105-106-008-010-013-015-019>022-104-241500-
NEW JERSEY

CITY           SKY/WX    TMP DP  RH WIND       PRES   REMARKS
NEWARK/LIBERTY PTSUNNY   76  63  64 N14       29.86S
TETERBORO      CLOUDY    76  63  64 N6        29.85S
CALDWELL       CLOUDY    73  60  63 CALM      29.88R
MORRISTOWN     NOT AVBL
SOMERVILLE     MOSUNNY   75  59  57 N8        29.85F
LINDEN         PTSUNNY   77  63  63 N8        29.88S
SUSSEX         MOSUNNY   74  59  59 N10G22    29.89F
ANDOVER          N/A     72  59  63 VRB6      29.89F
TRENTON        MOSUNNY   74  62  66 N10       29.87R
MILLVILLE      PTSUNNY   74  66  76 N7        29.88R
ATLANTIC CITY  PTSUNNY   75  66  73 N8        29.86S
WRIGHTSTOWN    PTSUNNY   75  64  68 N7        29.86R
TOMS RIVER     PTSUNNY   75  64  69 N8        29.87R
BELMAR         MOSUNNY   75  63  64 NW8       29.86R
$$

PAZ047>061-062-071-241500-
EASTERN PENNSYLVANIA

CITY           SKY/WX    TMP DP  RH WIND       PRES   REMARKS
PHILADELPHIA   PTSUNNY   74  59  59 N10       29.89R
ALLENTOWN      PTSUNNY   71  58  63 N9        29.90S
SCRANTON       MOSUNNY   69  55  60 N9        29.94S
$$

CTZ002-004>006-009-010-012-RIZ004-006-007-MAZ004-011-015-241500-
SOUTHERN NEW ENGLAND
 IN CT

CITY           SKY/WX    TMP DP  RH WIND       PRES   REMARKS
BRADLEY INTL   PTSUNNY   73  62  68 N7        29.84S
HARTFORD       PTSUNNY   74  62  66 N12       29.84S
DANBURY        PTSUNNY   71  61  70 NW7       29.89R
WTRBRY/OXFORD  PTSUNNY   70  61  73 N13       29.89R
BRIDGEPORT     CLOUDY    74  65  73 NW9       29.84S
MERIDEN        PTSUNNY   73  62  68 N9        29.85R
NEW HAVEN      PTSUNNY   75  62  64 N8        29.84R
CHESTER        FAIR      72  64  78 N9        29.85R
GROTON         MOSUNNY   75  66  73 N9        29.81R
WILLIMANTIC    MOSUNNY   73  63  70 NW12      29.84S

 IN RI

CITY           SKY/WX    TMP DP  RH WIND       PRES   REMARKS
PROVIDENCE     PTSUNNY   77  66  68 N9        29.81R
BLOCK ISLAND   MOSUNNY   75  68  78 N10       29.82R
WESTERLY       MOSUNNY   78  67  68 N10       29.82R

 IN MA

CITY           SKY/WX    TMP DP  RH WIND       PRES   REMARKS
BOSTON         CLOUDY    71  64  78 NE12      29.82R
WORCESTER      PTSUNNY   71  62  73 N9        29.86R
WESTFIELD      MOSUNNY   76  61  59 NE8       29.85S
PROVINCETOWN   CLOUDY    70  66  88 CALM      29.80R
NANTUCKET      PTSUNNY   71  68  90 SW5       29.79R
$$

ANZ330-335-338-340-345-350-353-355-241500-
COASTAL MARINE OBSERVATIONS


STATION/POSITION TIME  SKY/WX   TEMP    WIND        PRES    VSBY  WAVE
                                AIR SEA DIR/SP/G                  HT/PER
                 (UTC)          (F)     (DEG/KT/KT) (MB)    (MI)  (FT/S)
NY HARB ENTRANCE NOT AVBL
4S FIRE IS       NOT AVBL
23SW MTP         1400            72 71              1009.1          2/ 8
HUDSON CANYON    1400            73 74  350/ 12/ 12 1009.8          3/ 8
EXECUTION ROCKS  1400            73 71  340/ 12/ 16   N/A
WESTERN LI SOUND 1400            72     350/ 10/ 12   N/A           0
CENTRAL LI SOUND 1400            72 71   10/ 12/ 16   N/A           1
EASTERN LI SOUND 1300            72 67  360/ 10/ 12   N/A
ROBBINS REEF     1400            73     350/ 11/ 13   N/A
$$


>>>>>>>>>>>>>>>>>>>>>>>>>>>> KEY <<<<<<<<<<<<<<<<<<<<<<<<<<<
>                                                          <
>     SKY/WX - SKY CONDITION/PRESENT WEATHER               <
>     TMP    - TEMPERATURE IN FAHRENHEIT                   <
>     DP     - DEWPOINT IN FAHRENHEIT                      <
>     RH     - RELATIVE HUMIDITY IN PERCENT                <
>     WIND   - DIRECTION AND SPEED IN MPH                  <
>     PRES   - MEAN SEA LEVEL PRESSURE IN INCHES OF HG     <
>     WCI    - WIND CHILL INDEX                            <
>     VSB    - VISIBILITY IN MILES                         <
>     HX     - HEAT INDEX                                  <
>     TC     - TEMPERATURE IN CELSIUS                      <
>     VRB    - VARIABLE WIND DIRECTION                     <
>                                                          <
>>>>>>>>>>>>>>>>>>>>>>>>>>>> KEY <<<<<<<<<<<<<<<<<<<<<<<<<<<




USA.gov is the U.S. government's official web portal to all federal, state and local government web resources and services.